EW1953 Weather Reports


time (UTC)temp
C
wind
direction
speed
KPH
gust
KPH
rain 1hr
cm
rain 24hr
cm
rain mn
cm
humidity
%
barometer
mb
20260503055021 14 0.0 0.0 0.00 0.10 0.00 91 1011.3
20260503054016 14 0.0 0.0 0.00 0.10 0.00 91 1011.2
20260503053038 13 0.0 0.0 0.00 0.10 0.00 91 1011.3
20260503052038 13 0.0 0.0 0.00 0.10 0.00 91 1011.2
20260503051018 13 0.0 0.0 0.00 0.10 0.00 91 1011.2
20260503050018 13 0.0 0.0 0.00 0.10 0.00 90 1011.3
20260503045021 13 0.0 0.0 0.00 0.10 0.00 90 1011.2
20260503044059 13 0.0 0.0 0.00 0.10 0.00 90 1011.3
20260503043039 13 0.0 0.0 0.00 0.10 0.00 90 1011.4
20260503042018 13 0.0 0.0 0.00 0.10 0.00 90 1011.5
20260503041017 13 0.0 0.0 0.00 0.10 0.00 90 1011.5
20260503040018 13 0.0 0.0 0.00 0.10 0.00 90 1011.5
20260503035020 13 0.0 0.0 0.00 0.10 0.00 91 1011.5
20260503034102 13 0.0 0.0 0.00 0.10 0.00 91 1011.5
20260503033017 13 0.0 0.0 0.00 0.10 0.00 90 1011.5
20260503032040 13 0.0 0.0 0.00 0.10 0.00 90 1011.6
20260503031021 13 0.0 0.0 0.00 0.10 0.00 90 1011.6
20260503030017 13 0.0 0.0 0.00 0.10 0.00 90 1011.6
20260503025039 13 0.0 0.0 0.00 0.10 0.00 90 1011.7
20260503024019 13 0.0 0.0 0.00 0.10 0.00 90 1011.8
20260503023020 13 0.0 0.0 0.00 0.10 0.00 91 1011.7
20260503022019 13 0.0 0.0 0.00 0.10 0.00 90 1011.7
20260503021036 13 0.0 0.0 0.00 0.10 0.00 90 1011.7
20260503020018 13 0.0 0.0 0.00 0.10 0.00 90 1011.9
20260503015021 13 0.0 0.0 0.00 0.10 0.00 90 1012.1
20260503014016 13 0.0 0.0 0.00 0.10 0.00 90 1012.1
20260503013018 13 0.0 0.0 0.00 0.10 0.00 90 1012.1
20260503012018 13 0.0 0.0 0.00 0.10 0.00 89 1012.2
20260503011019 13 0.0 0.0 0.00 0.10 0.00 89 1012.3
20260503010017 13 0.0 0.0 0.00 0.10 0.00 89 1012.3
20260503005020 13 0.0 0.0 0.00 0.10 0.00 90 1012.3
20260503004021 13 0.0 0.0 0.00 0.10 0.00 90 1012.4
20260503003021 13 0.0 0.0 0.00 0.10 0.00 90 1012.4
20260503002017 13 0.0 0.0 0.00 0.10 0.00 90 1012.5
20260503001021 13 0.0 0.0 0.00 0.10 0.00 90 1012.6
20260503000036 13 0.0 0.0 0.00 0.10 0.00 90 1012.8
20260502235021 14 0.0 0.0 0.00 0.10 0.00 90 1012.8
20260502234017 14 0.0 0.0 0.00 0.10 0.00 90 1012.9
20260502233101 14 0.0 0.0 0.00 0.10 0.00 90 1013.0
20260502232020 15 0.0 0.0 0.00 0.10 0.00 90 1013.0
20260502231019 15 0.0 0.0 0.00 0.10 0.00 90 1013.0
20260502230041 15 0.0 0.0 0.00 0.10 0.00 90 1013.1
20260502225021 15 0.0 0.0 0.00 0.10 0.00 90 1013.2
20260502224022 15 0.0 0.0 0.00 0.10 0.00 89 1013.3
20260502223017 15 0.0 0.0 0.00 0.10 0.00 89 1013.3
20260502222041 15 0.0 0.0 0.00 0.10 0.00 90 1013.3
20260502221018 15 0.0 0.0 0.00 0.10 0.00 89 1013.4
20260502220019 15 0.0 0.0 0.00 0.10 0.00 89 1013.5
20260502215021 15 0.0 0.0 0.00 0.10 0.10 89 1013.4
20260502214018 15 0.0 0.0 0.00 0.10 0.10 89 1013.4
20260502213022 15 0.0 0.0 0.00 0.10 0.10 89 1013.5
20260502212021 15 0.0 0.0 0.00 0.10 0.10 88 1013.6
20260502211021 15 0.0 0.0 0.00 0.10 0.10 88 1013.5
20260502210023 15 0.0 0.0 0.00 0.10 0.10 87 1013.6
20260502205037 15 0.0 0.0 0.00 0.10 0.10 86 1013.4
20260502204020 15 0.0 0.0 0.00 0.10 0.10 86 1013.4
20260502203021 16 0.0 0.0 0.00 0.10 0.10 87 1013.4
20260502202017 16 0.0 0.0 0.00 0.10 0.10 87 1013.5
20260502201019 16 0.0 0.0 0.05 0.10 0.10 87 1013.5
20260502200019 16 0.0 0.0 0.05 0.10 0.10 86 1013.5
20260502195021 16 0.0 0.0 0.05 0.10 0.10 85 1013.5
20260502194021 17 0.0 0.0 0.05 0.10 0.10 84 1013.5
20260502193020 18 0.0 0.0 0.05 0.10 0.10 82 1013.6
20260502192020 18 0.0 0.0 0.05 0.10 0.10 78 1013.7
20260502191016 18 0.0 0.0 0.00 0.05 0.05 74 1013.7
20260502190022 19 0.0 0.0 0.00 0.05 0.05 74 1013.7
20260502185018 19 0.0 0.0 0.00 0.05 0.05 73 1013.8
20260502184021 19 0.0 0.0 0.00 0.05 0.05 74 1013.9
20260502183022 20 0.0 0.0 0.00 0.05 0.05 74 1013.8
20260502182020 20 0.0 0.0 0.00 0.05 0.05 76 1013.7
20260502181037 20 0.0 0.0 0.05 0.05 0.05 81 1013.8
20260502164021 23 0.0 0.0 0.00 0.00 0.00 62 1013.9
20260502163101 24 0.0 0.0 0.00 0.00 0.00 57 1014.2
20260502162040 25 0.0 0.0 0.00 0.00 0.00 54 1014.2
20260502161021 25 0.0 0.0 0.00 0.00 0.00 53 1014.3
20260502152038 25 0.0 0.0 0.00 0.00 0.00 55 1014.8
20260502151016 25 0.0 0.0 0.00 0.00 0.00 54 1015.1
20260502123043 23 0.0 0.0 0.00 0.00 0.00 58 1017.5
20260502122018 22 0.0 0.0 0.00 0.00 0.00 59 1017.5
20260502121018 22 0.0 0.0 0.00 0.00 0.00 61 1017.6
20260502115021 23 0.0 0.0 0.00 0.00 0.00 60 1017.8
20260502114041 23 0.0 0.0 0.00 0.00 0.00 61 1017.9
20260502113040 22 0.0 0.0 0.00 0.00 0.00 63 1018.0
20260502112017 22 0.0 0.0 0.00 0.00 0.00 63 1018.1
20260502111021 22 0.0 0.0 0.00 0.00 0.00 62 1018.1
20260502110058 22 0.0 0.0 0.00 0.00 0.00 65 1018.1
20260502105018 22 0.0 0.0 0.00 0.00 0.00 62 1018.2
20260502104041 23 0.0 0.0 0.00 0.00 0.00 63 1018.3
20260502103020 22 0.0 0.0 0.00 0.00 0.00 63 1018.4
20260502102018 22 0.0 0.0 0.00 0.00 0.00 64 1018.4
20260502101020 22 0.0 0.0 0.00 0.00 0.00 64 1018.5
20260502091020 20 0.0 0.0 0.00 0.00 0.00 69 1018.7
20260502071036 16 0.0 0.0 0.00 0.00 0.00 76 1019.5
20260502070020 16 0.0 0.0 0.00 0.00 0.00 77 1019.6
20260502065038 15 0.0 0.0 0.00 0.00 0.00 77 1019.7
20260502064017 15 0.0 0.0 0.00 0.00 0.00 80 1019.6
20260502063018 14 0.0 0.0 0.00 0.00 0.00 81 1019.7
20260502062019 13 0.0 0.0 0.00 0.00 0.00 81 1019.5
20260502061019 13 0.0 0.0 0.00 0.00 0.00 81 1019.5
20260502060020 13 0.0 0.0 0.00 0.00 0.00 80 1019.6